Torna al catalogo

USA 65

AttivoMilitareGEO
NORAD 20929·PAYLOAD·🇺🇸 United States

Lanciato Nov 13, 1990 da Cape Canaveral Space Force Station

Loading…

TLE

AggiornatoSource: Space-Track

Epoca: Sep 12, 2026, 16:13 UTC

1 20929U 90095A   26255.67625749 -.00000009  00000-0  00000-0 0  9991
2 20929  13.9503 343.4342 0003075  96.6563 228.1699  0.98395722 26323

Traccia USA 65 in tempo reale con AllMySat

Download on the App Store